RH
87 90 92 87 77 71 69 66 65 67 69 74 80 85 87 90 91 89 87 85 80 75 67 53 38 26 21 21 23 23 23 23 23 24 23 23 23 22 22 22 22 23 23 24 24 25 25 25 25 24 24 23 23 23 23 23 23 24 25 25 25 27 33 38 40 37 34 33 34 37 38 35 32 32 33 34 37 43 51 61 71 80 87 89 86 87 94
82 86 91 90 84 80 74 68 68 70 74 79 85 89 91 92 91 88 85 79 70 59 44 31 24 22 23 24 24 23 23 24 24 23 23 23 22 23 23 23 24 25 25 25 25 24 23 23 22 22 22 22 21 21 21 20 19 20 20 20 19 20 23 27 30 32 33 35 36 37 36 32 33 40 46 49 53 60 70 79 85 89 91 91 91 94 97
78 81 86 88 86 82 74 69 70 74 78 84 90 92 92 91 89 85 77 64 49 36 27 24 24 24 24 24 24 24 24 24 23 23 23 23 23 25 25 26 26 25 24 24 22 21 21 21 20 20 19 18 17 16 16 16 16 16 17 18 18 20 20 21 22 25 31 36 39 43 48 52 57 64 69 70 73 79 84 88 89 89 87 86 87 87 83
75 77 82 85 84 81 74 71 74 78 82 89 93 92 90 90 86 75 59 43 32 27 25 25 24 24 25 25 24 24 23 23 22 23 24 25 26 27 27 26 25 23 22 21 21 19 18 17 16 16 15 15 15 16 16 16 17 17 18 19 21 22 22 21 21 21 27 33 37 43 52 62 70 74 74 73 78 85 89 88 86 82 79 76 73 70 66
77 79 81 82 81 78 76 77 80 83 89 94 93 90 87 83 70 54 40 32 28 27 25 24 25 25 24 24 23 23 23 23 24 25 27 27 27 26 25 23 22 21 20 19 18 16 15 15 15 15 15 16 16 17 17 17 18 18 19 21 22 23 22 22 22 22 29 37 42 46 51 57 63 63 59 59 65 73 75 74 70 65 64 66 65 64 65
85 84 81 79 78 78 79 82 85 89 94 94 91 87 81 68 51 37 30 27 26 25 25 25 24 24 23 23 23 24 25 26 27 27 27 26 25 24 22 21 20 19 18 16 15 15 15 16 16 16 17 17 17 17 18 18 19 19 21 22 23 25 28 30 30 30 36 41 44 47 50 51 53 51 49 49 54 59 60 61 62 62 64 69 72 73 74
89 83 78 76 77 80 84 88 90 92 92 90 88 82 68 50 37 30 26 25 24 24 24 23 22 22 23 24 25 27 28 28 27 26 25 24 23 22 20 19 17 16 16 16 16 16 17 17 17 17 18 18 18 19 19 19 20 21 24 26 27 31 35 38 36 35 38 41 42 46 50 53 55 54 54 57 60 62 64 66 68 69 72 74 74 73 72
85 80 77 77 80 85 89 90 90 89 89 88 82 68 49 35 29 27 25 25 25 23 22 22 23 24 26 27 28 29 28 27 25 24 23 22 20 19 17 16 16 16 17 17 18 18 18 19 19 19 19 20 20 21 22 22 23 24 27 29 30 32 37 40 41 44 49 54 57 61 64 66 65 63 63 66 67 68 69 70 71 72 73 71 68 66 64
80 79 80 83 87 90 90 87 87 88 87 80 64 46 34 28 25 25 25 25 24 23 23 24 26 27 29 29 28 27 25 25 23 22 21 19 17 17 16 16 17 17 18 18 19 19 19 20 20 20 21 22 23 24 25 25 26 27 31 34 36 40 47 52 54 57 60 63 65 66 66 66 66 66 68 70 72 72 72 72 71 70 67 64 61 60 59
82 85 87 89 89 87 85 85 87 86 76 60 44 33 27 25 25 25 25 23 23 24 26 28 29 29 29 27 26 25 24 22 21 19 18 17 16 16 17 18 18 19 19 19 20 20 20 21 21 21 22 23 25 26 27 28 30 34 39 44 47 51 56 58 58 57 57 58 61 64 67 69 70 72 74 74 72 70 67 65 64 63 61 59 58 57 57
88 89 88 86 84 83 85 86 82 71 55 41 33 28 25 25 25 24 23 24 25 27 29 30 29 28 26 25 24 23 21 20 18 17 17 17 17 18 18 19 19 20 20 20 21 21 22 23 23 24 25 27 29 31 33 34 37 42 46 50 50 51 54 56 57 57 58 59 63 68 70 71 72 72 71 69 66 62 61 63 64 64 61 58 56 54 53
88 86 84 82 83 84 83 76 64 50 39 32 28 26 26 26 25 24 25 27 29 30 30 29 27 26 24 23 22 20 19 18 17 17 18 18 19 19 19 20 20 21 21 22 23 24 25 27 28 29 30 32 35 38 39 41 42 44 46 48 49 50 53 56 58 61 64 67 70 72 72 71 69 67 65 63 61 60 60 62 62 61 58 55 53 49 43
84 83 82 83 83 80 70 58 47 38 32 28 26 26 25 25 25 27 28 30 31 30 29 27 26 24 23 21 19 18 18 18 18 19 20 20 20 20 21 21 22 23 24 25 27 29 30 32 33 34 35 37 40 42 43 44 44 46 48 49 51 54 56 59 63 66 69 71 71 70 69 67 65 65 64 63 62 60 59 59 59 57 54 50 43 35 28
82 82 83 81 75 65 53 44 36 31 28 26 26 25 25 26 28 30 30 31 30 28 27 26 24 22 20 19 19 19 20 20 21 21 21 22 22 22 23 24 25 27 29 30 31 33 35 37 38 40 39 40 43 45 46 47 48 50 53 54 56 59 62 64 66 67 68 68 66 64 64 65 65 66 66 63 61 58 55 53 50 44 37 31 25 21 18
83 82 79 70 58 48 40 34 30 28 26 26 25 26 28 29 30 30 30 29 28 26 25 23 21 20 19 20 21 22 23 23 23 23 24 24 25 26 27 29 30 31 32 33 34 36 39 41 42 43 43 44 46 49 50 52 53 55 59 61 63 64 65 66 66 65 63 61 60 58 60 63 64 64 63 59 56 51 44 38 33 26 21 19 17 16 16
82 75 63 52 43 37 32 29 27 26 26 26 27 29 30 30 29 29 28 26 25 23 22 20 20 21 22 23 24 25 25 25 25 26 26 27 29 30 32 32 33 34 35 37 38 40 41 43 45 46 48 49 51 52 53 55 58 60 62 64 65 64 62 61 60 58 56 56 56 56 58 60 60 59 58 52 45 37 28 23 20 18 17 17 16 16 17
69 57 46 39 34 31 28 27 27 27 28 29 30 30 29 28 27 26 25 24 22 21 21 21 22 24 25 26 27 27 27 28 28 29 30 32 32 33 34 35 36 38 39 41 43 44 47 49 50 51 51 52 54 56 57 59 62 62 61 60 59 57 56 55 55 55 55 57 58 58 57 56 53 50 45 37 29 23 19 18 18 18 18 19 18 18 18
50 42 36 32 30 28 28 29 30 30 30 30 28 27 26 25 25 24 23 22 22 22 23 24 25 27 28 29 29 30 31 32 33 33 34 35 36 37 38 39 41 43 45 47 49 50 52 53 53 54 55 56 58 60 61 61 61 59 56 54 52 52 53 55 56 56 57 58 58 56 52 47 42 36 30 24 21 19 18 18 18 18 18 19 18 17 16
38 34 31 30 30 31 31 31 31 30 28 26 25 25 24 23 22 22 23 23 24 25 27 28 29 30 31 31 32 33 34 34 35 36 37 38 40 41 43 45 46 49 50 52 53 54 54 55 57 58 60 60 60 59 58 56 53 51 50 49 49 51 54 56 57 57 56 53 49 44 38 32 28 24 21 20 19 18 18 18 18 18 17 17 16 14 13
33 32 32 32 32 32 30 29 27 26 25 24 24 23 24 24 24 25 26 27 28 29 29 30 31 32 32 33 34 34 35 36 37 39 40 42 44 46 49 50 51 53 54 54 55 56 58 59 60 60 59 58 56 53 52 50 48 48 48 49 51 53 55 54 52 48 44 38 32 28 24 21 21 20 19 19 18 17 17 17 17 16 15 14 12 11 10
33 34 33 32 31 29 28 26 25 25 24 24 25 25 26 26 27 28 29 29 30 31 31 32 33 33 35 36 37 38 39 40 42 44 46 48 49 51 52 54 55 56 57 59 60 60 60 59 57 55 53 51 50 48 48 49 49 49 50 51 51 50 48 43 37 31 27 24 21 19 18 18 18 18 17 17 16 16 15 15 14 13 12 11 10 10 10
35 33 32 30 29 27 27 26 26 26 26 27 28 29 29 30 31 32 33 34 34 35 36 37 38 39 40 41 42 43 44 45 47 48 49 51 53 54 56 57 59 60 60 60 59 58 55 53 51 49 48 47 47 47 48 49 50 49 47 45 42 37 32 28 24 21 20 19 18 17 16 16 16 16 16 15 14 13 12 11 11 10 10 10 10 10 10
33 31 30 29 29 28 29 29 30 31 32 33 33 34 35 36 36 37 38 38 39 39 40 41 41 42 43 44 45 45 46 48 49 51 52 55 57 59 60 61 60 59 57 55 54 52 50 48 47 46 46 46 46 46 46 45 43 40 36 31 28 25 22 21 20 18 18 17 17 16 15 15 14 14 13 12 12 11 11 11 11 11 11 11 11 11 11
31 31 31 31 32 33 33 34 35 36 37 38 38 38 38 38 38 39 39 40 40 41 41 41 42 43 44 46 47 48 50 52 54 57 59 61 62 63 62 60 58 56 53 51 49 47 46 45 44 44 44 43 42 40 38 34 31 27 24 22 21 20 19 18 17 16 16 16 15 15 14 13 12 12 12 12 12 12 12 12 12 11 11 11 11 11 11
35 35 35 35 36 37 38 39 40 41 41 41 41 41 40 40 40 41 41 41 42 42 43 44 45 46 48 50 52 54 57 60 62 64 65 64 63 61 59 56 53 50 47 46 44 42 42 41 40 40 38 36 33 29 26 23 21 20 20 19 19 18 17 17 16 15 15 14 14 13 13 13 13 13 13 14 13 13 13 12 12 12 11 11 11 10 10
38 37 38 38 39 39 40 40 40 40 39 39 39 39 39 39 40 40 41 42 43 44 46 49 50 51 54 56 59 62 64 65 66 65 63 61 58 55 52 49 47 44 43 41 40 39 38 37 35 32 28 25 22 20 20 19 19 19 18 17 17 16 16 15 15 14 14 13 13 14 15 15 15 14 14 14 13 13 12 12 11 11 11 10 10 9 9
39 38 38 38 38 38 38 38 38 38 38 38 39 40 40 41 42 44 45 47 49 51 52 54 55 57 59 61 63 64 64 64 62 60 57 55 52 49 47 45 42 41 39 38 37 35 32 29 25 22 20 18 18 18 19 19 18 18 17 16 16 15 14 14 14 14 14 14 14 14 14 14 14 13 13 13 12 12 11 11 11 11 10 10 10 9 8
38 37 37 37 38 38 39 40 41 42 42 43 43 44 45 45 46 48 49 50 52 54 55 57 58 60 60 61 62 62 61 59 57 55 53 50 48 46 43 41 40 38 36 33 30 26 22 19 18 17 17 18 18 19 18 18 17 16 16 15 14 14 13 13 14 14 14 14 13 12 13 12 12 12 12 11 11 11 10 10 10 10 9 9 9 9 9
37 38 39 40 41 43 44 44 45 46 46 46 47 47 47 48 48 49 51 53 54 55 57 58 59 59 60 60 60 58 57 56 54 52 50 47 44 42 40 37 35 32 28 24 21 18 17 16 17 17 18 18 18 17 16 16 15 15 14 14 14 14 14 14 14 14 13 13 12 11 11 11 11 10 10 10 10 10 10 10 9 9 9 9 9 9 9
41 42 44 45 45 46 46 46 47 47 48 48 49 49 49 50 51 52 53 55 56 57 58 59 59 59 59 58 56 55 54 53 51 48 46 44 41 39 35 32 28 24 20 17 16 15 16 16 17 17 17 16 16 16 15 15 15 15 15 15 14 14 14 13 12 12 12 11 11 10 10 10 10 10 10 10 10 10 10 10 10 10 10 10 9 9 9
45 46 47 47 47 47 46 47 48 49 50 50 50 50 51 52 53 54 56 57 58 58 58 58 57 57 56 54 52 52 51 49 47 45 43 40 37 33 29 25 21 18 16 15 15 15 15 16 16 16 16 16 16 16 16 16 16 15 14 14 13 13 12 11 10 10 10 10 10 10 10 10 10 10 10 10 10 10 10 10 10 10 10 10 9 9 9
47 48 47 47 46 46 47 48 50 51 52 51 51 51 51 53 54 55 56 56 56 55 54 53 52 52 51 49 48 48 47 45 44 42 39 35 31 28 24 20 17 16 15 15 15 15 15 16 16 16 17 17 17 16 16 15 14 13 12 11 11 10 10 10 10 10 10 11 11 12 12 12 12 12 12 12 11 11 10 10 10 10 9 9 9 9 9
47 47 47 46 46 46 47 49 51 52 51 51 50 51 52 53 54 55 53 52 50 50 50 49 48 47 46 45 45 45 45 44 42 39 35 32 29 26 22 19 17 16 15 15 15 16 16 17 17 17 17 16 15 14 13 12 11 11 10 10 10 10 11 11 11 11 11 12 12 12 13 12 12 12 11 11 10 9 9 10 10 9 9 9 9 10 10
47 47 46 45 45 45 47 49 51 51 50 50 50 50 51 52 52 51 49 47 48 48 47 46 45 45 44 45 45 45 45 43 40 37 35 32 29 26 23 20 18 17 16 16 17 17 17 17 17 16 16 15 14 13 12 12 11 11 10 11 11 11 12 12 12 12 13 13 13 13 13 12 11 11 10 10 10 9 10 10 10 9 10 10 10 10 10
47 46 45 45 45 46 48 50 52 51 50 50 50 51 52 52 51 49 47 46 46 46 45 45 45 46 46 46 47 46 44 41 39 38 36 33 31 28 24 21 19 17 17 17 17 17 17 17 17 17 16 15 14 13 12 11 11 11 11 12 12 12 13 13 14 13 13 13 13 13 12 12 11 10 10 10 10 10 10 10 10 10 10 11 11 10 10
46 45 44 45 46 48 50 52 53 52 51 51 51 52 52 52 51 49 47 46 45 45 46 47 47 47 48 48 48 46 43 41 40 39 37 34 32 29 25 22 20 19 18 18 18 19 19 19 18 17 16 15 14 13 12 11 12 12 12 13 13 13 14 14 14 14 13 13 12 12 11 11 10 10 10 10 10 11 11 11 11 11 11 11 10 10 9
46 46 45 46 48 49 52 54 54 52 52 52 52 52 52 52 52 51 49 48 48 48 49 49 48 48 49 49 47 45 42 41 41 40 37 35 34 31 27 25 23 21 20 19 20 20 20 19 19 18 17 15 14 13 12 12 13 13 14 14 14 14 14 14 14 14 13 12 12 11 11 10 10 10 10 11 11 11 11 11 11 11 11 11 10 9 9
47 47 47 48 49 51 53 55 55 53 54 54 53 53 54 53 53 53 53 53 53 52 51 50 49 49 49 48 46 44 42 42 42 41 39 37 37 35 31 28 25 24 22 20 20 21 20 20 20 19 17 15 14 13 13 13 13 14 14 14 14 14 14 14 13 13 13 12 12 11 11 11 11 11 12 13 13 12 12 12 12 11 10 10 9 9 9
49 49 49 50 51 52 54 56 57 56 56 56 55 55 55 55 55 56 56 56 55 54 53 52 51 50 49 48 47 46 44 44 43 43 41 40 41 39 35 30 27 24 22 21 21 21 21 21 21 20 18 16 15 14 14 14 14 14 14 15 14 15 14 14 13 13 12 12 11 10 10 10 11 11 12 13 13 12 12 11 11 10 10 10 10 9 9
51 52 51 52 53 53 55 57 58 58 58 58 57 57 57 57 57 58 57 57 57 56 55 53 52 50 50 50 50 49 47 46 46 45 44 44 44 43 39 34 29 25 24 23 22 22 22 22 21 21 19 18 16 15 14 14 14 14 15 15 15 15 14 14 13 12 12 11 10 9 9 10 11 12 12 13 13 12 11 11 10 10 10 10 9 9 8
54 54 54 54 55 55 56 58 59 59 59 59 59 58 58 58 58 57 56 57 57 57 55 53 53 52 52 52 52 51 50 49 48 48 47 47 47 46 44 39 32 27 26 25 24 23 23 23 22 22 21 19 17 16 15 14 14 14 15 16 16 15 15 14 13 12 12 11 9 9 9 10 11 13 13 12 12 11 10 10 10 10 10 10 9 8 7
55 55 55 55 55 55 57 59 60 60 60 60 59 58 58 58 57 56 55 55 56 56 56 55 56 56 56 56 55 55 53 52 51 50 50 49 49 49 48 45 39 33 30 27 26 25 25 24 24 24 23 21 19 17 15 14 14 14 15 16 16 16 15 15 14 13 12 11 10 9 9 10 12 13 13 13 12 11 10 10 10 10 10 9 8 7 7
57 57 57 57 56 57 59 61 61 60 61 60 59 58 58 57 55 54 54 55 56 57 58 58 59 59 59 59 59 59 57 55 55 54 53 52 51 51 52 51 47 41 34 30 28 28 27 26 26 25 24 23 21 19 17 16 15 15 15 16 16 16 16 15 15 14 13 11 10 10 9 10 12 13 13 12 11 10 10 10 10 10 9 8 8 7 7
59 59 58 58 58 59 61 63 62 61 61 60 59 58 58 57 55 54 56 57 58 60 60 61 61 62 62 61 62 63 60 58 58 57 56 54 53 53 55 56 54 48 41 35 32 30 29 29 28 27 25 24 23 22 19 17 16 15 15 16 16 17 17 16 15 14 13 12 11 10 10 11 12 13 13 12 11 10 10 10 10 10 9 8 7 6 6
61 60 60 60 60 60 62 63 63 62 61 60 59 58 58 57 57 58 60 60 61 62 62 62 63 64 64 64 66 66 64 62 61 60 58 56 56 57 58 59 58 55 49 43 37 33 32 31 31 29 28 26 25 23 21 19 17 15 15 16 16 17 18 17 17 16 15 13 12 11 10 11 12 13 13 12 11 10 10 10 10 10 9 8 7 7 7
63 63 63 63 62 62 63 64 64 62 61 60 60 60 60 60 61 62 63 64 65 65 65 66 66 66 67 68 69 69 67 65 64 63 61 59 59 60 61 61 61 60 56 50 43 38 35 33 32 32 30 28 27 25 23 21 19 17 16 16 17 17 18 18 18 17 16 15 13 12 11 11 13 14 14 13 11 10 10 10 10 9 9 8 7 7 7
67 66 65 65 63 63 64 66 65 64 63 63 64 64 64 64 64 65 66 67 68 67 66 67 68 68 69 70 72 72 71 69 67 67 65 63 61 61 61 62 62 62 60 55 49 43 37 34 34 34 33 31 29 28 26 24 22 19 17 16 17 18 18 19 20 19 18 17 15 13 12 12 13 14 14 13 12 10 10 10 10 9 8 8 8 7 7
71 69 67 66 65 65 67 69 68 67 66 66 66 67 68 67 67 69 69 69 68 68 68 68 69 70 71 72 73 73 73 72 70 69 67 65 63 62 62 63 64 64 62 59 54 49 43 38 36 36 36 35 33 32 30 28 25 22 18 17 17 18 19 20 20 20 20 18 16 14 13 12 13 14 14 13 12 11 10 10 10 9 8 8 8 7 7
72 71 70 68 67 68 70 72 72 71 69 68 68 70 71 70 69 70 71 71 71 70 70 70 72 73 74 74 75 76 75 74 72 71 70 68 65 64 64 65 65 66 65 63 59 54 49 43 39 37 37 37 37 35 34 32 29 25 20 18 18 18 19 20 21 22 21 20 18 15 14 13 13 14 14 13 12 11 10 10 9 9 9 8 8 8 7
74 75 74 73 73 73 74 76 76 73 71 70 70 71 72 72 71 72 74 74 74 73 72 73 75 76 77 77 78 78 76 75 74 74 74 72 68 66 66 67 66 67 67 66 63 58 54 49 43 39 39 39 39 38 36 34 31 27 23 19 18 18 18 19 21 22 22 21 19 16 14 13 13 14 15 14 12 11 10 10 10 9 8 8 8 8 7
78 79 79 78 78 77 77 78 78 74 72 72 72 73 74 74 73 74 76 76 75 75 75 76 77 78 80 81 80 79 78 77 77 77 77 75 71 69 69 69 69 68 69 69 66 62 58 55 49 43 40 40 41 40 39 36 33 29 25 21 18 18 18 19 21 22 23 23 21 18 15 14 14 14 15 14 13 11 10 10 10 9 8 7 8 8 7
82 82 82 81 80 80 80 81 78 75 74 74 74 74 75 75 74 75 78 78 77 77 78 79 78 79 81 82 82 82 83 82 80 79 78 77 75 73 72 72 71 70 71 71 69 65 61 59 54 47 42 41 41 42 41 39 36 32 28 23 19 18 18 19 20 23 24 24 23 20 17 15 14 14 15 15 13 11 11 10 10 10 9 8 8 8 8
Wind_Speed
38 39 40 42 43 43 43 43 43 43 43 44 45 46 48 49 50 51 52 52 52 52 52 52 51 48 43 39 36 34 34 34 35 36 37 37 38 39 40 41 42 43 45 46 47 48 49 49 50 51 52 52 53 53 54 54 54 54 54 55 55 54 54 55 56 57 56 56 56 57 57 57 56 56 57 56 56 56 56 57 58 60 63 65 67 68 69
40 40 41 42 44 44 44 44 44 44 45 46 46 48 49 50 51 51 52 52 52 52 51 48 45 40 37 36 35 35 35 36 37 38 39 40 40 42 43 44 44 45 46 47 48 49 50 50 51 52 52 53 53 53 53 53 53 52 53 53 52 52 52 53 54 55 54 54 53 53 54 54 53 53 55 56 56 57 58 59 61 64 66 68 70 72 74
42 42 42 43 45 45 45 45 45 45 46 46 47 49 50 51 51 51 52 52 51 49 45 41 38 36 36 36 36 37 37 38 38 39 41 42 43 44 45 45 46 47 48 49 49 50 50 51 51 51 51 51 51 50 50 50 49 49 49 50 50 50 50 49 50 50 50 50 50 50 51 52 52 53 55 56 58 59 61 62 65 67 69 72 74 75 78
43 42 43 44 45 45 46 46 46 46 47 47 48 49 50 50 51 51 51 49 46 42 39 37 37 36 37 37 37 38 39 40 40 41 42 43 44 45 46 47 48 48 49 50 50 50 50 50 49 49 48 48 47 47 47 47 47 47 47 47 47 47 47 47 47 46 47 48 49 50 51 52 53 55 57 58 60 62 64 66 69 71 73 76 78 79 82
42 43 44 44 44 45 46 46 47 47 47 48 49 49 49 49 50 49 46 43 40 39 38 37 37 38 38 39 39 40 41 42 43 43 44 45 46 46 47 48 49 49 49 49 49 49 48 47 47 46 46 45 45 45 45 44 44 44 45 44 45 46 46 46 46 46 46 48 50 51 52 54 56 58 60 61 63 65 68 70 72 74 77 79 82 83 85
42 43 43 43 44 45 45 46 46 47 47 48 48 48 48 48 47 45 42 40 39 38 38 38 39 39 40 40 41 42 43 43 44 45 45 46 47 47 48 48 48 48 48 48 47 46 46 45 45 44 44 44 44 43 43 43 42 42 43 43 44 45 45 47 48 47 48 50 52 54 55 57 59 62 63 64 66 68 70 73 75 78 80 82 85 87 89
43 42 42 43 43 44 44 45 45 46 46 47 47 48 47 46 44 42 41 40 39 39 39 39 40 40 41 42 43 43 44 45 46 46 46 46 47 47 47 47 47 46 45 45 44 44 44 44 44 43 43 43 43 42 42 42 42 42 43 44 45 46 47 49 50 51 52 53 55 57 59 60 62 65 66 68 69 71 74 76 79 82 85 87 89 91 94
42 42 42 43 43 43 43 44 44 45 45 46 46 46 45 43 42 41 41 40 40 40 40 41 41 42 43 43 44 45 45 46 46 46 46 46 46 46 45 45 44 43 43 43 43 42 42 42 42 42 42 42 42 42 43 43 43 43 44 45 47 48 49 51 52 53 54 56 58 59 61 64 66 68 70 72 74 76 78 80 83 86 89 92 94 96 99
41 41 41 41 41 42 42 43 43 44 44 45 45 43 42 41 41 41 40 40 41 41 42 42 43 43 44 44 45 45 46 46 46 46 46 45 44 43 43 42 42 41 41 41 41 41 41 40 41 41 41 42 42 43 43 44 44 45 46 47 49 50 51 53 55 55 57 59 61 63 66 68 70 73 75 77 79 80 82 85 88 91 94 97 99 102 104
40 40 40 40 40 41 41 42 43 43 44 43 42 41 41 41 40 40 40 41 41 42 43 43 44 44 45 45 45 45 45 45 45 44 44 43 42 41 41 40 40 40 40 40 40 40 40 40 40 41 41 42 43 43 44 45 46 47 48 49 51 52 54 56 58 60 61 63 65 67 70 72 74 77 79 82 84 85 87 90 93 97 100 102 104 107 109
38 38 38 38 39 40 41 41 42 42 42 41 41 41 41 41 41 41 41 42 42 43 44 44 45 45 45 45 45 45 44 44 43 42 41 41 40 40 40 40 40 40 39 39 40 40 40 40 41 41 42 43 44 45 46 47 48 49 51 53 54 56 57 60 62 64 66 68 70 72 74 77 79 81 84 87 89 91 93 95 99 102 105 108 110 111 113
36 37 37 38 39 39 40 41 41 41 40 40 40 41 41 41 41 41 42 42 43 44 44 45 45 45 45 44 44 43 42 41 40 40 39 39 39 39 39 39 39 39 39 39 40 40 41 41 42 43 44 45 46 48 49 50 51 53 54 56 58 60 61 64 66 68 70 73 75 77 79 82 85 87 90 93 95 96 98 100 104 107 109 111 112 113 113
35 36 37 38 38 39 40 40 39 39 39 39 40 40 40 41 41 42 42 43 44 44 44 44 45 44 43 42 41 40 39 39 39 38 38 39 38 38 38 38 39 39 39 39 40 41 42 43 45 46 47 48 49 51 53 54 55 57 59 61 62 64 66 68 70 72 74 77 79 81 84 87 90 93 96 98 100 102 103 105 108 110 112 112 111 111 109
35 36 37 37 38 39 39 39 38 38 38 39 39 39 40 41 41 42 43 43 43 43 43 43 42 42 41 39 39 38 38 38 38 38 37 38 38 38 38 38 38 39 40 41 41 43 44 46 47 49 50 51 53 55 56 58 59 61 63 65 67 69 71 72 74 76 79 81 84 86 88 91 95 98 101 103 105 106 107 108 109 109 109 108 107 106 104
35 35 36 37 38 38 37 36 37 38 38 39 39 39 40 41 42 42 42 42 42 42 41 40 39 38 38 37 37 37 36 36 36 36 37 37 37 38 38 39 40 41 42 43 44 45 47 48 50 52 53 55 56 58 59 61 63 64 66 69 71 73 75 77 79 81 84 86 89 91 93 95 98 102 105 107 109 109 108 107 106 105 104 103 102 101 100
34 36 37 37 36 35 35 36 37 38 38 39 39 40 40 41 41 41 41 40 40 39 38 37 36 36 36 36 36 35 35 36 36 36 36 37 38 39 40 41 42 43 44 46 47 48 50 51 53 55 56 57 59 61 63 65 67 68 70 72 75 77 79 82 84 86 88 91 94 96 98 100 102 105 108 109 109 108 106 104 103 102 102 101 100 99 98
35 35 35 34 34 35 36 37 37 38 38 39 39 40 40 40 39 39 38 37 37 36 36 35 35 35 35 35 35 36 36 37 37 37 38 39 40 41 42 43 44 45 47 48 50 51 53 54 56 58 59 61 63 65 67 68 71 73 75 76 79 81 84 86 89 91 94 96 98 101 102 104 105 106 107 107 106 105 103 102 100 99 99 99 98 97 97
34 33 33 33 34 35 36 36 37 37 38 38 38 38 37 37 36 35 35 34 34 34 34 34 34 34 34 35 35 36 36 37 38 39 40 41 42 43 44 45 47 48 49 51 52 54 55 57 59 61 63 65 67 69 70 72 74 76 79 81 83 86 88 91 93 95 97 99 101 103 104 104 105 104 103 103 102 101 100 99 98 96 96 96 96 95 95
32 32 33 33 34 35 35 36 36 36 36 36 35 35 34 34 33 33 33 33 33 33 33 33 34 34 34 35 35 36 37 38 39 40 41 42 43 45 46 47 49 50 51 53 55 56 58 60 62 64 66 68 70 72 74 76 78 81 83 86 88 90 92 94 96 98 100 101 102 102 101 100 100 99 98 98 98 97 96 96 95 94 94 94 94 94 94
31 32 32 33 33 34 34 34 34 33 33 32 32 32 32 32 32 32 32 32 32 33 33 33 34 34 35 36 36 37 38 39 40 42 43 44 46 47 48 50 51 52 54 56 57 59 61 63 65 67 69 71 74 76 79 82 84 86 88 90 91 93 95 96 97 98 98 98 98 96 95 94 93 93 93 93 93 92 92 92 92 92 92 92 92 92 92
30 31 31 32 32 32 32 31 31 30 30 30 30 30 30 30 30 31 31 32 32 33 34 34 35 36 37 37 38 39 40 41 42 43 45 46 47 48 49 51 53 55 56 58 60 62 64 66 68 71 73 76 79 81 83 86 87 89 91 92 93 94 95 96 95 94 94 93 92 91 90 89 89 89 89 89 89 89 88 88 89 90 90 91 91 92 93
29 29 29 29 29 28 28 28 28 28 28 28 28 29 29 30 30 31 32 33 33 34 35 36 36 37 38 39 40 41 42 43 44 45 46 47 49 50 52 53 55 57 59 61 63 65 68 70 73 76 78 81 83 85 86 88 89 91 92 92 92 92 92 91 91 90 89 89 89 88 87 86 86 86 86 86 87 87 87 88 88 89 90 92 93 94 95
26 26 26 26 25 25 25 25 26 26 27 28 28 29 30 30 31 31 32 33 34 35 35 36 37 38 39 40 41 42 43 44 45 47 48 49 51 52 54 56 58 60 62 65 67 70 72 75 78 80 81 83 85 86 88 89 89 89 89 89 88 87 87 86 85 85 85 85 85 85 85 84 84 84 85 85 86 87 88 89 91 92 93 94 95 96 96
23 23 23 23 23 23 24 25 26 28 29 30 31 32 32 33 34 34 35 36 37 37 38 38 39 40 41 42 43 44 45 46 48 49 50 52 53 55 57 59 61 64 67 69 72 74 76 78 80 82 83 84 85 86 86 86 86 85 84 83 82 82 81 82 82 81 81 82 82 83 84 84 84 84 86 87 89 90 91 92 93 94 94 95 95 95 94
21 21 21 21 22 24 26 27 29 30 31 32 32 33 34 35 36 36 37 38 38 39 40 41 41 42 43 44 45 47 48 49 50 51 53 54 56 58 60 63 66 68 71 73 75 77 79 80 81 82 82 82 82 82 82 81 80 79 79 78 77 77 77 78 78 79 79 79 80 81 83 85 86 86 88 89 90 91 92 92 93 93 93 93 93 92 91
19 20 21 22 24 25 27 28 29 30 31 32 33 34 35 36 37 39 40 41 41 42 43 44 45 46 46 47 48 48 49 50 51 52 54 56 59 61 64 67 70 72 74 76 77 78 79 79 79 79 78 78 77 77 76 75 75 74 74 73 73 74 74 75 76 77 78 79 80 81 83 85 87 87 88 89 89 89 90 90 90 90 90 90 90 90 90
19 21 22 23 25 26 28 30 31 33 34 36 37 38 40 40 41 42 43 44 44 45 46 46 46 47 47 47 48 48 49 50 52 54 57 60 63 66 69 71 73 75 76 76 76 76 76 75 74 73 73 72 72 71 71 70 70 70 70 70 71 72 73 74 76 77 79 80 81 81 82 83 85 85 85 86 86 87 87 87 87 87 87 87 87 87 88
20 21 23 25 28 30 32 33 35 36 37 39 40 41 42 42 43 44 44 44 44 45 45 46 46 46 46 47 47 48 50 52 55 59 62 65 67 70 72 73 74 74 74 73 71 70 69 68 68 68 67 67 67 66 66 66 67 68 69 70 71 72 74 75 76 78 79 81 81 81 81 82 83 83 83 83 83 84 84 84 84 84 85 85 85 85 84
22 25 27 29 31 32 34 35 36 37 37 39 40 41 41 42 43 43 44 44 44 45 45 45 45 46 46 47 48 50 53 56 59 62 65 68 70 71 72 72 71 70 68 67 65 64 64 64 63 63 63 63 63 64 64 66 67 69 70 72 73 74 75 76 77 78 79 80 80 80 80 80 80 80 81 81 81 81 82 82 83 83 84 84 84 83 82
25 27 29 30 32 33 34 34 35 36 37 38 39 40 41 42 43 43 43 44 44 45 45 45 46 46 47 49 51 53 56 59 62 64 67 69 71 71 70 69 67 65 63 62 61 61 60 60 60 60 61 62 63 65 66 68 70 71 73 74 75 75 76 76 76 76 76 77 78 78 78 78 78 79 79 80 80 80 81 82 82 83 83 83 83 82 81
27 28 29 30 31 32 33 34 35 36 37 38 39 40 41 42 43 43 43 44 44 45 45 46 46 48 49 50 52 55 57 60 64 67 69 70 70 69 67 65 63 62 61 60 60 59 60 60 61 62 63 65 66 68 69 70 71 72 72 73 73 74 74 74 74 74 75 76 77 78 79 79 79 79 80 80 81 81 81 82 82 82 82 82 82 81 80
26 27 28 29 31 32 33 34 35 36 38 39 40 41 42 42 43 43 44 44 45 45 46 46 47 48 49 51 53 56 59 62 66 68 69 69 69 67 66 64 63 62 61 61 61 61 61 62 63 64 65 66 67 68 69 69 70 71 71 72 72 73 73 73 74 74 74 75 76 77 78 78 79 79 79 79 80 80 80 81 81 81 81 81 81 80 80
25 26 28 29 30 32 33 34 36 37 38 39 41 42 42 43 44 45 45 45 45 46 46 47 47 48 50 52 55 59 62 65 68 70 71 70 69 68 67 65 64 63 63 63 63 63 63 64 64 65 66 67 67 68 69 70 71 71 72 72 72 73 74 74 74 74 74 75 75 75 75 76 76 77 77 78 78 79 79 79 79 80 80 80 80 79 79
25 26 28 29 31 32 34 35 37 38 39 40 42 43 43 44 45 45 45 46 47 47 47 48 49 50 52 55 59 62 66 69 71 73 73 73 72 70 69 67 66 65 65 64 64 64 64 65 66 66 68 69 70 71 71 72 72 72 72 72 72 73 73 74 74 74 74 74 74 74 75 75 76 76 77 78 78 79 78 78 78 79 79 79 78 78 78
25 27 28 30 31 33 35 36 38 39 41 42 43 44 45 46 46 47 47 48 48 49 50 51 52 54 56 59 63 66 69 72 74 75 76 75 74 72 71 69 68 67 67 67 66 67 67 68 69 70 70 71 72 72 72 72 72 72 72 72 73 73 73 73 73 73 73 73 73 74 75 76 76 77 77 78 78 78 77 77 77 77 77 77 77 77 78
26 27 29 31 33 34 36 38 39 41 42 43 44 45 46 48 49 49 50 51 51 52 53 54 56 58 60 63 66 69 72 74 76 77 78 77 76 75 74 72 71 70 70 69 70 70 70 70 71 71 72 73 73 73 73 73 74 74 73 73 73 73 73 73 73 73 73 72 73 74 75 76 76 77 77 77 77 76 76 76 76 75 75 75 75 76 77
27 28 30 32 34 35 37 39 40 42 43 45 46 47 49 50 51 52 53 54 56 56 57 58 59 61 63 65 68 71 74 76 78 80 80 80 79 78 77 76 74 73 73 72 72 72 72 72 73 73 74 74 75 75 75 76 75 75 75 75 75 75 74 74 73 73 73 73 74 75 75 76 76 76 76 76 76 76 75 74 74 74 74 75 76 77 78
28 29 31 33 35 36 38 39 41 43 45 46 48 49 51 52 54 55 57 58 59 60 61 61 62 63 65 68 70 73 76 78 80 81 82 82 82 82 80 78 77 75 74 74 74 74 75 75 75 76 76 77 77 78 78 77 77 77 77 77 77 77 76 75 75 74 74 74 75 75 76 76 77 77 76 76 76 76 75 74 74 74 75 76 77 79 79
29 30 32 34 36 37 39 40 42 45 46 48 49 51 53 54 56 57 59 60 61 62 63 64 65 66 67 70 72 75 78 80 82 84 85 85 85 84 83 81 79 78 77 77 77 77 78 78 78 78 79 79 80 80 80 80 80 80 80 80 80 79 78 78 77 77 76 76 76 76 76 77 77 77 76 76 76 76 75 74 75 76 77 78 79 80 80
30 31 33 35 37 38 40 42 44 46 48 49 51 53 54 56 57 58 60 61 62 64 64 66 67 68 70 72 74 77 80 82 84 86 87 88 88 87 85 84 82 81 80 80 80 80 80 80 80 81 81 81 82 82 82 82 82 82 83 83 82 81 81 80 80 79 79 78 78 78 78 78 78 78 77 76 75 75 75 75 76 77 78 79 80 81 81
31 33 34 36 37 39 41 43 45 47 49 51 52 54 56 57 58 59 61 62 64 65 66 67 69 70 72 74 76 78 81 83 86 88 89 90 90 90 88 87 86 85 84 83 83 83 83 83 83 83 83 84 84 84 84 85 85 85 85 85 84 84 83 83 82 81 81 80 80 80 80 79 79 78 77 76 75 75 75 76 77 78 79 80 81 81 82
32 34 35 37 38 40 42 43 46 48 50 52 53 55 56 58 59 61 63 64 66 67 69 70 71 73 74 76 78 80 82 84 87 89 91 92 93 92 92 91 89 88 87 86 86 85 85 85 85 85 85 86 86 86 87 87 88 88 88 87 87 87 86 85 84 84 83 83 82 82 82 81 80 79 78 77 76 76 76 77 79 80 80 81 81 82 82
34 35 37 38 40 41 43 45 46 49 51 53 54 56 58 59 61 63 65 67 68 70 71 72 74 75 76 77 79 81 83 85 88 91 93 94 95 95 95 94 93 91 90 89 89 88 88 87 87 87 87 88 88 89 90 90 91 91 90 90 90 90 89 88 87 86 85 85 84 84 83 82 80 79 78 77 77 78 78 80 81 81 82 82 82 82 82
35 36 38 39 41 42 44 46 47 49 52 54 55 57 59 61 63 65 67 69 71 72 74 74 75 77 78 79 80 82 84 86 89 91 94 96 97 98 97 96 95 94 93 92 91 91 90 90 90 90 90 90 91 92 92 93 93 94 93 93 93 92 92 91 89 88 87 87 86 85 84 83 81 80 79 78 78 79 80 82 83 83 83 83 83 82 81
36 38 39 41 42 43 45 46 48 50 52 55 56 58 60 62 65 67 69 71 72 74 75 76 77 78 79 80 82 83 85 87 89 92 94 97 98 99 99 99 98 96 95 94 93 93 92 92 92 92 92 92 93 94 95 95 96 96 96 95 95 95 94 93 92 91 90 89 88 87 86 85 83 81 80 80 80 80 81 83 84 84 85 84 84 82 81
38 39 41 42 43 45 46 48 49 51 54 56 58 60 62 64 66 68 70 72 74 75 76 77 78 79 80 81 83 85 86 88 90 92 95 97 99 100 101 101 100 99 97 96 95 95 95 94 94 94 94 95 95 96 96 97 98 98 98 98 97 96 96 95 94 93 92 91 90 89 88 87 85 83 82 82 82 82 83 84 85 85 85 85 84 83 81
39 41 42 44 45 46 48 49 51 53 55 58 60 62 64 66 67 69 71 73 75 76 77 78 79 80 81 83 84 86 87 88 90 92 95 97 99 101 102 102 102 101 100 98 98 97 97 97 96 96 96 97 97 98 98 99 100 100 100 100 99 99 98 97 96 95 94 93 92 91 90 89 87 86 84 83 83 84 84 85 86 87 87 86 85 83 82
41 43 44 45 46 48 49 51 52 54 57 59 61 63 65 67 68 70 72 74 76 77 78 79 80 81 82 84 85 86 87 88 90 92 94 97 99 101 103 103 104 103 102 101 100 99 99 99 98 98 98 99 99 100 101 101 102 102 102 102 102 101 100 99 98 97 95 94 93 92 91 90 89 87 86 85 85 85 86 87 87 87 88 87 86 84 83
43 44 46 47 48 49 51 52 54 56 58 60 62 64 66 67 69 71 73 74 76 78 79 80 81 82 83 84 86 87 88 89 90 92 94 97 99 101 103 104 105 105 104 103 102 101 100 100 100 100 100 101 101 102 102 103 104 104 104 104 103 102 101 101 99 98 97 96 94 93 92 91 90 89 87 86 86 86 87 88 88 88 88 87 86 84 83
44 46 48 49 50 51 53 54 55 57 59 61 63 65 66 68 70 71 73 75 77 78 80 81 82 83 84 85 86 87 88 89 90 92 94 96 99 101 103 105 106 106 106 105 104 103 102 102 102 102 102 102 102 103 103 104 105 105 105 105 105 104 103 102 101 100 98 97 96 94 93 93 91 90 89 88 87 87 88 89 89 88 87 86 85 84 83
46 48 49 51 52 53 54 55 56 57 59 62 64 66 67 69 71 72 74 76 78 79 80 82 82 83 84 85 86 88 89 90 91 92 94 96 98 101 103 105 106 107 107 107 106 105 104 104 104 104 103 103 103 104 104 105 106 106 106 106 106 105 104 103 102 101 100 98 97 96 94 93 92 91 90 89 88 88 88 89 89 89 88 86 85 84 83
47 49 50 52 53 54 55 55 56 58 60 62 64 66 68 70 72 73 75 77 78 80 81 82 83 84 85 86 87 88 90 91 91 92 93 95 98 100 103 105 107 108 108 108 108 107 106 105 105 105 105 105 104 105 105 106 107 107 107 107 107 106 106 105 104 103 101 100 98 97 96 94 94 92 91 90 89 89 89 90 90 90 89 88 86 85 84
Wind_Direction
274 277 280 284 290 294 298 302 305 308 311 313 314 315 314 313 312 312 312 312 312 312 312 313 313 314 314 314 314 314 315 315 314 314 314 313 312 312 311 310 309 308 307 306 306 305 305 304 304 304 303 303 302 302 301 301 301 301 300 300 300 300 300 299 298 298 298 299 299 298 298 298 298 299 298 298 298 298 298 298 297 296 295 295 295 295 294
276 278 281 285 289 293 298 302 306 308 311 313 313 313 312 312 311 312 312 312 312 312 313 313 314 314 314 315 315 315 316 315 315 315 314 313 313 312 311 310 309 308 307 306 306 305 305 305 305 305 304 304 303 303 303 302 302 302 302 301 301 301 300 300 300 300 301 302 302 301 300 300 301 301 300 300 300 300 299 298 297 296 295 295 295 295 294
278 281 283 285 289 293 298 302 305 308 311 312 311 311 311 311 311 312 312 312 313 313 314 315 315 315 315 315 316 316 316 315 315 314 314 313 312 311 310 309 308 308 307 307 307 307 307 307 306 306 305 305 305 305 305 305 305 304 304 304 303 303 302 302 302 303 304 304 303 303 302 302 302 301 300 300 300 299 298 297 296 296 295 295 295 295 294
282 284 285 287 290 294 298 302 305 308 310 310 310 310 310 311 312 312 313 313 314 315 315 315 315 315 315 316 316 316 316 315 315 314 313 312 311 311 310 309 309 309 309 309 309 308 308 308 307 307 307 307 307 307 307 307 307 307 307 306 306 305 305 305 305 306 306 305 304 304 303 303 302 301 300 300 299 299 298 298 297 297 297 296 296 296 296
287 287 288 290 293 296 299 302 305 307 308 308 308 309 311 312 313 313 314 315 315 315 315 315 315 316 316 316 316 316 315 315 314 313 312 312 311 310 310 310 310 310 310 310 310 310 310 310 309 309 309 309 309 309 309 309 309 309 309 308 308 307 307 307 307 308 307 306 305 305 304 303 302 301 301 301 301 300 299 299 298 298 298 298 298 298 298
289 290 292 294 296 298 301 303 305 306 306 307 308 310 312 313 313 314 315 315 315 314 315 315 316 316 317 317 316 316 315 314 313 312 312 311 311 310 311 311 312 312 311 311 311 311 311 311 311 311 311 311 311 311 311 311 311 311 310 310 309 309 309 308 308 309 308 307 306 306 305 304 303 303 302 302 301 301 300 300 300 300 300 300 299 299 299
290 293 296 298 299 301 302 304 304 304 305 307 310 311 312 313 313 314 314 314 314 314 315 316 316 317 317 316 315 315 314 313 313 312 312 311 311 312 312 313 313 312 312 312 312 313 313 313 313 314 314 313 313 313 312 312 312 312 311 311 310 310 310 310 310 310 309 308 307 307 306 305 304 303 303 303 302 302 302 302 302 301 301 300 300 299 299
292 296 298 300 301 302 302 302 303 304 306 309 310 311 312 312 313 313 313 314 315 315 316 316 316 316 316 315 315 314 313 313 312 312 312 313 313 313 313 313 313 313 313 314 314 314 315 315 315 315 315 314 314 314 314 313 313 313 312 312 311 312 311 311 311 310 309 308 307 306 305 305 304 304 304 303 303 303 303 302 302 301 300 300 300 300 300
295 298 300 301 301 301 301 302 304 306 308 309 310 311 312 312 312 312 313 314 315 315 316 316 316 315 315 315 314 314 313 313 313 313 314 314 314 314 314 314 314 315 315 316 316 316 315 315 314 314 314 314 314 314 313 313 313 313 313 312 312 312 311 310 309 309 308 307 307 306 306 305 305 305 304 304 303 303 302 302 302 301 301 301 301 302 302
297 299 299 300 300 301 303 305 306 308 309 310 311 312 312 312 312 312 313 314 315 315 315 316 316 315 315 315 314 314 314 314 315 315 315 315 315 315 316 316 316 317 317 317 316 316 315 315 314 314 314 314 314 313 313 313 314 314 313 312 311 311 310 309 309 308 308 308 307 307 306 306 305 305 304 303 303 303 303 303 303 303 303 303 303 303 303
298 298 299 300 302 304 305 306 308 309 310 311 312 312 312 312 312 313 314 314 315 315 316 316 316 315 315 315 315 315 316 316 316 316 316 316 317 317 318 318 318 318 318 317 316 316 316 315 315 315 315 315 314 314 313 313 313 313 312 311 311 310 310 309 309 309 309 308 308 307 306 306 305 304 303 303 303 304 304 305 304 304 304 304 304 303 303
298 299 301 303 304 306 307 308 309 311 311 312 311 311 311 312 313 313 314 315 315 316 316 316 316 316 316 316 317 317 317 317 318 318 318 319 319 319 319 319 319 318 318 318 317 317 317 316 316 316 316 315 315 314 313 313 313 313 312 311 311 311 311 310 310 309 309 308 308 307 306 305 305 304 304 304 304 305 306 306 305 305 304 304 304 304 303
299 302 304 305 306 307 309 310 311 311 311 311 311 310 311 311 312 314 315 316 316 316 316 316 316 316 317 318 318 319 320 320 320 321 320 320 320 320 320 319 319 319 319 318 318 318 318 317 316 316 316 315 315 314 314 314 314 314 313 312 312 312 311 310 310 309 308 307 306 306 305 305 305 305 305 305 306 306 306 306 305 305 305 304 304 304 304
302 304 306 307 308 310 311 311 311 311 311 310 310 310 311 312 314 315 315 316 316 316 316 316 317 318 319 320 321 322 322 322 322 322 321 321 321 320 320 320 319 319 319 319 319 319 318 317 316 316 316 316 315 315 315 315 315 314 313 313 312 311 310 310 309 308 307 306 306 306 306 306 306 306 306 306 306 306 306 306 305 305 305 304 304 304 304
305 307 308 310 311 311 311 311 311 310 310 309 310 311 313 314 315 315 315 315 315 316 317 318 319 320 321 323 323 323 323 322 322 322 321 321 321 321 320 320 321 320 320 320 319 319 318 318 317 317 317 317 316 316 316 315 315 314 313 312 311 310 309 309 308 307 307 307 307 307 307 307 307 306 306 306 306 306 306 306 306 306 305 305 306 306 307
308 309 311 311 311 312 312 311 311 310 310 311 312 314 315 315 315 315 316 316 317 318 319 320 322 322 323 323 323 323 323 322 322 322 322 322 322 322 322 322 322 322 321 321 320 320 319 319 318 317 317 317 317 316 315 315 314 313 312 311 310 309 309 308 308 308 308 308 308 308 308 308 307 307 306 306 307 307 307 307 307 307 307 308 308 308 308
310 311 312 312 313 313 312 311 311 311 312 314 315 316 316 316 317 317 318 319 320 321 322 324 324 324 324 324 324 324 324 324 324 325 325 324 324 324 324 324 323 323 322 322 321 321 320 319 319 318 318 317 316 316 315 314 313 312 311 311 310 309 309 309 309 309 309 309 309 308 308 308 308 307 307 307 308 308 308 308 309 309 309 309 309 309 309
312 313 313 313 313 312 312 312 313 314 316 316 317 318 318 319 319 321 322 323 324 325 326 326 326 326 326 327 327 327 327 327 327 327 327 326 326 326 325 325 324 323 323 322 321 321 320 320 319 318 318 317 316 315 314 313 312 311 311 311 311 310 310 310 310 309 309 309 308 308 308 308 308 308 308 308 308 309 309 309 310 309 309 309 309 309 309
314 313 313 313 313 313 314 315 316 317 318 319 320 321 322 323 324 326 327 327 328 328 329 329 329 329 329 329 329 329 328 328 328 327 327 327 327 326 326 325 325 324 323 322 322 321 321 320 319 318 317 316 315 314 313 313 312 312 312 311 311 310 310 309 309 309 308 308 308 308 308 308 308 308 308 308 309 309 309 310 310 309 309 309 309 309 309
313 313 313 314 315 316 318 319 320 322 323 324 326 327 328 330 330 331 331 332 332 332 332 332 331 331 331 331 330 330 329 329 329 329 329 328 328 327 327 326 325 325 324 323 322 321 321 320 319 318 316 315 315 314 314 313 313 312 311 311 310 310 309 309 308 308 308 308 308 308 308 308 308 308 308 309 309 309 309 309 309 309 309 309 309 309 310
313 314 316 318 320 322 323 325 327 328 330 331 332 333 334 335 335 335 335 335 335 335 335 335 334 334 334 333 333 333 332 332 331 331 330 330 329 328 327 327 326 325 324 323 322 321 320 319 318 317 316 315 315 314 313 312 312 311 311 310 310 310 309 309 309 309 309 309 309 309 309 309 309 309 309 309 309 309 309 309 309 309 310 310 311 312 312
317 320 322 324 326 328 330 332 334 335 336 337 338 339 339 339 339 340 339 339 339 339 339 338 338 338 337 336 336 335 334 334 333 332 332 331 330 329 328 327 326 325 324 323 322 321 320 319 318 317 316 315 314 313 312 311 311 310 310 310 310 310 310 310 310 310 310 310 310 310 311 311 310 310 310 310 310 311 311 311 312 312 313 314 314 315 315
323 326 329 332 334 336 338 339 341 342 343 344 345 345 345 345 344 344 344 343 343 343 342 342 341 341 340 339 338 337 337 336 335 334 333 332 331 330 329 327 326 325 324 323 322 321 319 318 317 316 315 314 313 312 311 311 311 311 311 311 311 311 311 311 311 311 311 311 312 312 312 312 312 312 312 313 313 314 315 315 316 316 317 317 317 316 316
332 335 337 339 341 343 346 348 350 350 351 351 351 350 350 350 350 349 349 348 348 347 346 346 345 344 343 342 341 340 339 338 337 335 335 333 332 330 329 328 326 325 324 322 321 320 318 317 316 315 314 313 312 312 312 312 312 312 312 312 312 312 312 312 313 313 313 313 313 314 314 314 315 316 316 317 317 318 318 318 318 318 317 317 316 316 315
341 343 345 347 350 354 356 357 357 357 357 356 356 355 355 355 354 354 353 352 351 351 350 349 348 347 346 344 343 342 341 339 338 337 335 334 332 330 329 327 326 324 323 321 320 319 317 316 315 314 314 313 313 313 313 313 313 313 313 314 314 314 314 314 315 315 315 315 316 316 317 318 318 319 319 319 319 319 318 318 317 317 316 316 316 316 316
350 353 356 359 1 3 3 4 3 2 1 1 360 359 358 358 357 356 355 354 353 352 351 350 349 348 347 345 343 342 341 339 337 336 334 333 332 330 328 327 325 324 322 321 320 319 317 317 316 315 315 315 315 315 315 315 315 315 316 316 316 316 316 317 317 318 318 319 319 320 320 320 320 320 320 319 318 318 317 317 316 316 316 317 317 317 317
3 6 7 9 9 9 8 7 6 5 4 3 1 0 359 358 357 356 355 354 352 351 350 349 347 346 345 344 342 341 340 338 337 336 335 333 332 330 328 327 325 324 322 321 320 319 318 318 317 317 317 317 317 317 318 318 318 318 318 319 319 319 320 321 321 321 321 321 321 321 321 320 320 319 319 318 317 317 317 317 317 317 317 318 318 318 318
14 14 14 13 13 12 10 9 7 5 4 2 1 360 358 357 355 354 353 352 350 349 347 346 346 345 344 343 342 341 340 340 339 337 336 334 332 330 328 327 325 324 323 322 321 321 320 320 320 320 320 321 321 321 322 322 322 322 322 323 323 324 324 324 324 323 323 322 322 322 322 321 320 319 319 318 318 319 319 319 319 319 319 319 319 320 320
18 17 16 15 14 12 10 8 6 4 2 1 360 358 356 355 354 353 352 350 349 348 347 346 345 345 344 344 343 343 343 341 340 338 335 333 332 330 329 327 326 326 325 325 325 325 324 325 325 325 325 325 326 326 326 327 327 327 327 327 327 327 327 326 326 325 324 323 323 322 322 321 320 321 321 321 321 321 321 321 321 321 321 321 321 322 322
20 19 17 15 13 10 8 7 5 2 1 0 359 357 356 355 354 352 351 350 349 348 347 346 346 346 346 346 345 345 343 341 339 337 335 334 333 331 330 330 330 330 330 330 330 330 330 330 330 331 331 331 332 332 332 332 331 331 331 330 329 328 328 327 326 326 325 324 324 323 323 323 323 324 324 324 324 324 323 323 323 323 323 323 323 323 324
21 18 16 14 11 9 7 5 3 2 1 360 358 357 356 356 354 353 352 351 349 348 348 347 347 347 347 346 345 344 342 340 339 338 336 335 335 335 335 335 335 335 336 336 336 336 336 336 336 337 337 337 337 336 335 334 333 333 332 331 330 329 329 328 328 328 327 327 327 327 327 327 327 327 327 326 326 326 326 325 325 325 324 325 325 325 326
20 17 14 11 9 7 5 4 3 1 0 359 358 357 357 356 355 354 353 351 350 349 349 348 348 347 346 345 344 343 342 341 341 340 339 339 340 340 341 341 341 341 341 341 341 341 342 342 342 341 341 340 339 338 337 336 335 334 334 333 332 332 331 331 331 331 330 330 330 330 329 329 329 329 328 328 327 327 327 327 326 326 326 327 327 327 328
17 14 11 9 7 5 4 3 2 1 359 358 358 358 357 356 355 354 353 351 350 350 349 348 348 347 346 345 344 344 344 344 343 343 344 345 346 346 346 347 347 346 346 346 346 346 346 345 345 344 343 342 341 340 340 339 338 337 337 336 335 335 334 334 334 334 334 333 333 332 331 330 330 330 329 329 328 329 329 329 328 328 328 329 329 330 330
14 11 8 6 5 3 3 2 1 0 359 358 358 357 357 356 355 354 353 352 352 350 349 349 348 347 347 347 347 347 347 347 347 348 349 350 351 351 351 351 350 350 350 350 350 349 349 348 348 347 346 345 345 344 343 342 341 340 340 339 338 338 337 337 337 337 336 336 335 334 333 332 332 331 331 331 331 331 331 331 331 331 331 331 331 332 332
10 7 6 4 3 2 2 1 1 360 359 359 358 357 357 356 355 354 354 353 353 352 351 350 350 350 350 350 350 350 350 350 351 352 353 354 354 354 354 354 353 353 353 353 353 353 352 352 351 350 349 348 347 346 345 344 344 343 343 342 341 341 340 340 339 339 339 338 337 336 335 334 334 333 333 333 333 333 334 334 333 333 333 333 333 333 333
6 4 3 3 3 2 1 1 0 359 359 359 358 358 357 357 356 355 355 354 354 354 353 353 352 352 352 352 352 352 352 353 354 355 356 356 357 357 357 356 356 356 356 356 355 355 354 353 352 352 351 350 349 348 348 347 347 346 345 345 344 344 343 343 342 341 340 340 339 338 337 336 336 335 335 335 335 336 336 336 335 335 335 335 335 335 335
2 2 2 2 1 1 1 360 359 359 359 358 358 358 357 357 356 356 355 355 355 355 355 354 354 353 353 353 353 353 354 355 356 357 358 358 359 359 359 359 359 358 358 357 357 356 355 355 354 353 352 352 351 351 350 350 349 349 348 347 347 346 346 345 344 343 342 342 341 340 339 338 338 338 338 338 338 338 338 338 337 337 337 337 337 337 337
359 360 0 0 0 0 360 359 359 359 358 358 358 357 357 357 356 356 356 356 356 356 355 355 355 354 354 353 354 354 355 356 357 358 359 360 0 0 0 360 360 359 359 358 358 357 357 356 355 354 354 354 353 353 352 352 351 351 350 350 349 349 348 347 346 345 344 344 343 342 341 341 340 340 340 340 340 340 340 340 340 340 340 339 339 339 339
358 358 359 359 359 359 358 358 358 358 358 357 357 357 357 356 356 356 356 356 356 356 355 355 355 355 354 354 355 355 356 357 358 359 0 1 2 1 1 1 0 360 360 360 359 358 358 357 356 356 355 355 355 354 354 353 353 353 352 352 351 350 349 348 348 347 346 345 345 344 344 343 343 342 342 342 342 342 342 343 343 342 342 341 341 341 341
356 356 357 357 358 358 358 358 358 358 357 357 357 357 356 356 356 356 356 355 356 356 356 355 355 355 355 355 356 356 357 358 359 0 1 2 2 2 2 1 1 1 1 1 0 359 359 358 357 357 357 356 356 356 355 355 354 354 354 353 352 352 351 350 349 348 348 347 346 346 346 345 345 344 344 345 344 344 344 344 344 344 343 343 342 342 342
355 355 356 357 357 357 357 357 357 357 356 356 356 356 356 355 355 355 355 355 355 355 355 355 355 355 355 356 356 357 357 358 359 0 2 2 2 2 2 2 2 2 1 1 1 360 359 358 358 358 357 357 357 356 356 356 355 355 355 354 353 353 352 351 350 350 349 348 348 348 348 347 347 346 346 346 346 346 346 346 345 345 345 344 344 344 343
353 354 354 355 355 356 356 356 356 356 356 355 355 355 355 355 354 355 355 355 355 356 356 356 356 356 356 356 357 357 358 358 359 0 1 2 2 3 3 3 2 2 2 1 1 0 360 359 359 358 358 358 357 357 357 357 357 356 356 355 354 354 353 353 352 351 350 350 349 349 349 349 349 348 347 348 348 348 347 347 347 346 346 346 346 345 345
352 353 353 354 354 355 355 355 355 355 355 354 354 354 354 354 354 355 355 355 355 356 356 356 356 356 356 357 357 357 357 358 359 0 1 2 2 3 3 3 3 2 2 1 1 0 360 360 359 359 359 358 358 358 358 358 357 357 356 356 355 355 354 353 353 352 351 351 351 350 350 350 350 349 349 349 349 349 348 348 348 348 348 347 347 347 347
351 351 352 352 353 354 354 354 354 354 354 353 353 353 353 354 354 355 355 355 355 356 356 356 356 356 356 357 357 357 357 358 359 360 0 1 2 2 3 3 3 2 2 1 1 0 0 360 359 359 359 359 359 359 358 358 358 357 357 357 356 355 355 354 353 353 352 352 352 351 351 351 351 351 350 350 350 350 350 349 349 349 349 349 348 349 348
349 350 351 351 352 353 353 353 353 353 352 352 352 352 353 354 354 355 355 355 355 355 355 356 356 356 356 356 357 357 357 358 358 359 360 1 1 2 2 2 3 3 2 2 1 0 0 0 360 359 359 359 359 359 359 359 358 358 357 357 357 356 355 354 354 353 353 353 353 352 352 351 351 352 352 351 351 351 351 350 350 350 350 350 350 350 350
348 349 350 350 351 352 352 352 352 352 352 352 352 352 353 354 354 354 355 354 355 355 355 355 356 356 356 356 357 357 357 358 358 359 359 360 1 1 2 2 2 2 2 2 1 1 0 0 360 360 359 359 359 359 359 359 359 358 358 357 357 356 356 355 354 354 354 354 353 353 352 352 352 352 352 352 352 351 351 351 351 351 351 351 351 351 351
348 348 349 349 350 351 351 351 351 351 351 352 352 352 353 353 354 354 354 354 354 354 355 355 355 355 356 356 356 357 357 357 357 358 359 359 360 0 1 1 2 2 2 2 1 1 0 360 360 360 360 359 360 360 359 359 359 358 358 357 357 357 356 356 355 355 354 354 354 353 353 353 353 353 353 353 352 351 352 352 352 352 353 353 352 352 352
347 347 347 348 349 350 350 350 350 350 350 351 351 352 352 353 353 354 354 353 354 354 354 355 355 355 355 356 356 356 357 357 357 357 358 358 359 360 0 1 1 1 1 1 1 1 0 360 360 360 360 360 360 360 360 359 359 358 358 358 357 357 356 356 355 355 355 355 354 354 354 353 353 353 353 353 352 352 352 352 353 353 354 354 353 353 353
346 346 347 347 348 349 349 349 349 349 350 350 350 351 351 352 353 353 353 353 353 353 354 355 355 355 355 355 356 356 356 356 356 357 357 358 358 359 359 360 0 1 1 1 1 1 1 0 360 360 360 360 360 360 360 359 359 358 358 358 357 357 357 356 356 355 355 355 355 354 354 354 353 353 353 353 353 352 352 353 353 354 354 354 354 353 353
345 345 346 347 347 348 348 348 348 348 349 349 350 350 351 351 352 352 353 353 353 353 354 354 355 355 355 355 355 355 356 356 356 356 357 357 357 358 359 359 360 360 0 0 1 1 1 0 360 360 360 360 360 359 359 359 359 358 358 357 357 357 357 356 356 356 355 355 355 355 354 354 354 353 353 353 353 353 353 353 354 354 354 354 354 354 354
344 344 345 346 346 346 347 347 347 347 348 348 349 349 350 351 351 352 352 352 353 353 353 354 354 354 355 355 355 355 355 356 356 356 356 356 357 357 358 358 359 359 359 360 0 0 1 0 360 359 359 359 359 359 359 359 359 358 358 357 357 357 357 357 356 356 356 355 355 355 355 354 354 353 353 353 353 353 353 353 354 354 354 355 355 355 355
343 343 344 344 344 345 346 346 346 346 347 347 348 349 349 350 351 351 352 352 352 352 353 353 354 354 354 354 354 355 355 355 355 355 355 356 356 356 357 358 358 358 359 359 360 360 0 0 360 359 359 359 359 359 359 359 359 358 358 357 357 357 357 357 357 356 356 355 355 355 355 355 354 354 353 353 353 353 354 354 354 354 354 355 355 356 356